76542 UUEM-UUDL

Flight info

Callsign 76542
Flight time 0h 33m
Altitude 31000
Route UUEM DCT OSDAS GAKLU REKPA RANTO USECE DCT UUDL
Aircraft IL76/H-SDE3GHIJ2J3J5M1RVWXY/LB2D1

Departure

Time 2026-04-24 16:23
Airport Migalovo Air Base (UUEM)

Arrival

Time 2026-04-24 16:57
Airport Golden Ring Yaroslavl International Airport (UUDL)
Time Latitude Longitude Altitude Speed Heading
2026-04-24 16:12 56.82820 35.75891 466 ft 0 kts 165°
2026-04-24 16:17 56.82819 35.75891 466 ft 0 kts 165°
2026-04-24 16:18 56.82764 35.75897 466 ft 11 kts 204°
2026-04-24 16:18 56.82719 35.75657 466 ft 5 kts 257°
2026-04-24 16:18 56.82694 35.75517 467 ft 12 kts 251°
2026-04-24 16:19 56.82641 35.75082 466 ft 32 kts 255°
2026-04-24 16:19 56.82583 35.74687 466 ft 26 kts 256°
2026-04-24 16:20 56.82526 35.74307 467 ft 15 kts 255°
2026-04-24 16:20 56.82420 35.73676 473 ft 19 kts 206°
2026-04-24 16:20 56.82291 35.73714 473 ft 18 kts 167°
2026-04-24 16:21 56.82215 35.73958 470 ft 0 kts 74°
2026-04-24 16:21 56.82216 35.73962 470 ft 0 kts 75°
2026-04-24 16:22 56.82418 35.75341 465 ft 115 kts 75°
2026-04-24 16:22 56.82660 35.76976 571 ft 143 kts 75°
2026-04-24 16:23 56.82917 35.78706 1004 ft 140 kts 75°
2026-04-24 16:23 56.83188 35.80533 1198 ft 167 kts 75°
2026-04-24 16:23 56.83551 35.82732 1628 ft 191 kts 72°
2026-04-24 16:24 56.84488 35.87758 2749 ft 228 kts 70°
2026-04-24 16:24 56.85023 35.90643 3109 ft 252 kts 71°
2026-04-24 16:24 56.85595 35.93814 3497 ft 271 kts 72°
2026-04-24 16:24 56.86190 35.97183 3876 ft 288 kts 72°
2026-04-24 16:25 56.86812 36.00749 4250 ft 305 kts 72°
2026-04-24 16:25 56.87468 36.04534 4614 ft 320 kts 72°
2026-04-24 16:25 56.88155 36.08514 4985 ft 334 kts 72°
2026-04-24 16:26 56.89591 36.16863 5744 ft 357 kts 72°
2026-04-24 16:26 56.90344 36.21256 6156 ft 366 kts 72°
2026-04-24 16:26 56.91886 36.30290 7034 ft 380 kts 72°
2026-04-24 16:27 56.92677 36.34941 7590 ft 384 kts 72°
2026-04-24 16:27 56.93456 36.39540 8251 ft 385 kts 72°
2026-04-24 16:27 56.94253 36.44248 8831 ft 388 kts 72°
2026-04-24 16:27 56.95048 36.48962 9379 ft 392 kts 72°
2026-04-24 16:28 56.95851 36.53737 9915 ft 395 kts 72°
2026-04-24 16:28 56.96655 36.58527 10433 ft 398 kts 72°
2026-04-24 16:28 56.98295 36.68335 11431 ft 403 kts 73°
2026-04-24 16:29 56.99113 36.73251 11902 ft 406 kts 73°
2026-04-24 16:29 56.99933 36.78192 12357 ft 409 kts 73°
2026-04-24 16:29 57.01583 36.88174 13258 ft 413 kts 73°
2026-04-24 16:30 57.03085 36.98339 14154 ft 414 kts 77°
2026-04-24 16:30 57.04122 37.03202 14596 ft 413 kts 64°
2026-04-24 16:30 57.05210 37.08038 15048 ft 413 kts 68°
2026-04-24 16:31 57.06274 37.12893 15495 ft 413 kts 69°
2026-04-24 16:31 57.07303 37.17831 15947 ft 413 kts 69°
2026-04-24 16:31 57.08314 37.22756 16395 ft 413 kts 69°
2026-04-24 16:31 57.09314 37.27672 16842 ft 413 kts 69°
2026-04-24 16:32 57.10320 37.32660 17295 ft 413 kts 69°
2026-04-24 16:32 57.11306 37.37578 17741 ft 413 kts 69°
2026-04-24 16:32 57.12291 37.42512 18188 ft 412 kts 69°
2026-04-24 16:32 57.13274 37.47446 18635 ft 411 kts 69°
2026-04-24 16:33 57.14260 37.52417 19087 ft 410 kts 69°
2026-04-24 16:33 57.15224 37.57288 19529 ft 409 kts 69°
2026-04-24 16:33 57.16203 37.62249 19981 ft 408 kts 69°
2026-04-24 16:33 57.17037 37.67224 20423 ft 407 kts 76°
2026-04-24 16:34 57.18043 37.72026 20871 ft 406 kts 66°
2026-04-24 16:34 57.19112 37.76912 21332 ft 407 kts 68°
2026-04-24 16:34 57.20160 37.81740 21782 ft 407 kts 69°
2026-04-24 16:34 57.21187 37.86605 22229 ft 404 kts 69°
2026-04-24 16:35 57.22182 37.91388 22668 ft 400 kts 69°
2026-04-24 16:35 57.23155 37.96095 23105 ft 396 kts 69°
2026-04-24 16:35 57.24123 38.00812 23546 ft 391 kts 69°
2026-04-24 16:35 57.25080 38.05492 23988 ft 387 kts 69°
2026-04-24 16:36 57.26023 38.10116 24428 ft 382 kts 69°
2026-04-24 16:36 57.26937 38.14616 24858 ft 374 kts 69°
2026-04-24 16:36 57.27833 38.19039 25287 ft 366 kts 69°
2026-04-24 16:36 57.28716 38.23410 25731 ft 365 kts 69°
2026-04-24 16:37 57.29601 38.27797 26119 ft 365 kts 69°
2026-04-24 16:37 57.30491 38.32222 26469 ft 366 kts 69°
2026-04-24 16:37 57.31544 38.36474 26798 ft 366 kts 67°
2026-04-24 16:37 57.32356 38.40903 27158 ft 365 kts 70°
2026-04-24 16:38 57.33193 38.45340 27508 ft 365 kts 70°
2026-04-24 16:38 57.34040 38.49771 27857 ft 365 kts 70°
2026-04-24 16:38 57.34893 38.54180 28204 ft 365 kts 70°
2026-04-24 16:38 57.35751 38.58584 28550 ft 365 kts 70°
2026-04-24 16:39 57.36617 38.63015 28898 ft 364 kts 69°
2026-04-24 16:39 57.37476 38.67402 29244 ft 363 kts 70°
2026-04-24 16:39 57.38347 38.71849 29594 ft 362 kts 70°
2026-04-24 16:39 57.39200 38.76214 29938 ft 360 kts 70°
2026-04-24 16:40 57.40057 38.80605 30285 ft 359 kts 70°
2026-04-24 16:40 57.40897 38.84916 30626 ft 357 kts 70°
2026-04-24 16:40 57.41732 38.89206 30966 ft 354 kts 70°
2026-04-24 16:40 57.42570 38.93526 31309 ft 352 kts 70°
2026-04-24 16:41 57.43392 38.97769 31647 ft 349 kts 70°
2026-04-24 16:41 57.44196 39.01928 31979 ft 346 kts 70°
2026-04-24 16:41 57.45005 39.06122 32315 ft 342 kts 70°
2026-04-24 16:41 57.45812 39.10316 32240 ft 351 kts 70°
2026-04-24 16:42 57.46647 39.14662 31469 ft 362 kts 70°
2026-04-24 16:42 57.47498 39.19101 29947 ft 371 kts 70°
2026-04-24 16:42 57.48336 39.23487 28514 ft 367 kts 70°
2026-04-24 16:42 57.49130 39.27896 26987 ft 362 kts 79°
2026-04-24 16:43 57.49146 39.32448 24975 ft 369 kts 105°
2026-04-24 16:43 57.48072 39.36658 22762 ft 374 kts 130°
2026-04-24 16:43 57.46308 39.40025 21471 ft 356 kts 132°
2026-04-24 16:43 57.44694 39.43237 20940 ft 332 kts 133°
2026-04-24 16:44 57.43163 39.46277 20355 ft 313 kts 130°
2026-04-24 16:44 57.41642 39.48942 19677 ft 301 kts 151°
2026-04-24 16:44 57.39651 39.49894 18685 ft 301 kts 183°
2026-04-24 16:44 57.37693 39.48815 17742 ft 299 kts 213°
2026-04-24 16:45 57.36179 39.46310 17047 ft 288 kts 232°
2026-04-24 16:45 57.35019 39.43422 16479 ft 277 kts 233°
2026-04-24 16:45 57.33921 39.40615 16367 ft 261 kts 234°
2026-04-24 16:45 57.32851 39.37870 15781 ft 267 kts 234°
2026-04-24 16:46 57.31765 39.35083 15251 ft 269 kts 234°
2026-04-24 16:46 57.30842 39.32105 14629 ft 273 kts 256°
2026-04-24 16:46 57.30941 39.28688 14097 ft 272 kts 291°
2026-04-24 16:46 57.32061 39.25898 13558 ft 271 kts 321°
2026-04-24 16:47 57.33551 39.23777 13056 ft 272 kts 322°
2026-04-24 16:47 57.35063 39.21676 12515 ft 274 kts 323°
2026-04-24 16:47 57.36582 39.19572 11975 ft 276 kts 323°
2026-04-24 16:47 57.38123 39.17439 11430 ft 277 kts 323°
2026-04-24 16:48 57.39861 39.15969 10784 ft 279 kts 354°
2026-04-24 16:48 57.41714 39.16594 10273 ft 277 kts 27°
2026-04-24 16:48 57.43100 39.19004 9716 ft 276 kts 60°
2026-04-24 16:48 57.43739 39.22339 9224 ft 274 kts 73°
2026-04-24 16:49 57.44266 39.25699 8678 ft 275 kts 74°
2026-04-24 16:49 57.44787 39.29132 8402 ft 264 kts 74°
2026-04-24 16:49 57.45270 39.32318 8220 ft 251 kts 74°
2026-04-24 16:49 57.45733 39.35374 8040 ft 240 kts 74°
2026-04-24 16:50 57.46030 39.37341 7915 ft 233 kts 74°
2026-04-24 16:50 57.46609 39.41033 7750 ft 215 kts 71°
2026-04-24 16:50 57.47080 39.43736 7568 ft 224 kts 75°
2026-04-24 16:50 57.47494 39.46581 7485 ft 234 kts 79°
2026-04-24 16:51 57.47480 39.49683 7375 ft 243 kts 92°
2026-04-24 16:51 57.47393 39.52914 7254 ft 257 kts 93°
2026-04-24 16:51 57.47285 39.56324 7140 ft 271 kts 93°
2026-04-24 16:51 57.47171 39.59922 7019 ft 285 kts 93°
2026-04-24 16:52 57.47053 39.63645 6981 ft 293 kts 93°
2026-04-24 16:52 57.46931 39.67470 7019 ft 299 kts 94°
2026-04-24 16:52 57.46809 39.71308 7052 ft 304 kts 94°
2026-04-24 16:52 57.46681 39.75300 7084 ft 309 kts 94°
2026-04-24 16:53 57.46553 39.79281 7116 ft 313 kts 93°
2026-04-24 16:53 57.46802 39.83282 7085 ft 311 kts 68°
2026-04-24 16:53 57.47725 39.86885 7044 ft 307 kts 63°
2026-04-24 16:53 57.48701 39.90243 6469 ft 292 kts 61°
2026-04-24 16:54 57.49635 39.93369 6214 ft 258 kts 60°
2026-04-24 16:54 57.50517 39.96120 5786 ft 234 kts 58°
2026-04-24 16:54 57.51309 39.98470 5262 ft 199 kts 58°
2026-04-24 16:54 57.51984 40.00475 4667 ft 175 kts 58°
2026-04-24 16:55 57.52600 40.02499 3727 ft 189 kts 62°
2026-04-24 16:55 57.53167 40.04625 3043 ft 180 kts 64°
2026-04-24 16:55 57.53674 40.06651 2355 ft 168 kts 67°
2026-04-24 16:55 57.54145 40.08626 1690 ft 174 kts 65°
2026-04-24 16:56 57.54668 40.10569 1230 ft 160 kts 64°
2026-04-24 16:56 57.55150 40.12365 649 ft 155 kts 62°
2026-04-24 16:56 57.55619 40.14080 323 ft 136 kts 63°
2026-04-24 16:56 57.55961 40.15363 319 ft 84 kts 63°
2026-04-24 16:57 57.56166 40.16120 319 ft 43 kts 63°
2026-04-24 16:57 57.56238 40.16453 319 ft 15 kts 115°
2026-04-24 16:57 57.56185 40.16547 319 ft 7 kts 155°
2026-04-24 16:57 57.56142 40.16585 319 ft 9 kts 159°
2026-04-24 16:58 57.56085 40.16555 319 ft 4 kts 242°
2026-04-24 16:58 57.56027 40.16324 319 ft 24 kts 242°
2026-04-24 16:58 57.55965 40.16090 319 ft 17 kts 246°
2026-04-24 16:58 57.55905 40.15872 319 ft 22 kts 242°
2026-04-24 16:59 57.55787 40.15534 319 ft 33 kts 213°
2026-04-24 16:59 57.55702 40.15352 319 ft 0 kts 243°